Location: ??????
(36.0418°N, 43.6351°E)
Time: 22:29:59
(UTC+00:00)

CZ-2C R/B - Pass Details

Date: 07 March 2021
Orbit: 667 x 785 km, 98.2° (Epoch: 19 April)

Event Time Altitude Azimuth Distance (km) Brightness Sun altitude
Rises 01:15:51 0° 6° (N) 3,103 5.9 -27.3°
Reaches altitude 10° 01:18:11 10° 1° (N) 2,163 5.0 -26.8°
Enters shadow 01:20:22 26° 350° (N) 1,353 3.8 -26.4°
